Burley, ID

2:09 AM MDT on October 19, 2019 (GMT -0600)
Burley Municipal

Weather History for KBYI - September, 2019

Change the Weather History Date:

Monday, September 16, 2019

  Actual Average Record
Temperature  
Mean Temperature 66 °F 58 °F  
Max Temperature 82 °F 74 °F 92 °F (2000)
Min Temperature 49 °F 43 °F 22 °F (1936)
Degree Days  
Heating Degree Days 0 7  
Month to date heating degree days 41 78  
Since 1 July heating degree days 62 135  
Cooling Degree Days 1 1  
Month to date cooling degree days 50 19  
Year to date cooling degree days 416 363  
Growing Degree Days 16 (Base 50)    
Moisture  
Dew Point 36 °F    
Average Humidity 37    
Maximum Humidity 59    
Minimum Humidity 15    
Precipitation  
Precipitation T in 0.01 in 0.47 in (1919)
Month to date precipitation 0.47 0.26  
Year to date precipitation 8.68 7.02  
Sea Level Pressure  
Sea Level Pressure 29.67 in    
Wind  
Wind Speed 8 mph (WSW)    
Max Wind Speed 33 mph    
Max Gust Speed 45 mph    
Visibility 10 miles    
Events Rain    
T = Trace of Precipitation, MM = Missing Value Source: NWS Daily Summary

Daily Weather History Graph

Daily Weather History Graph

Search for Another Location

Airport or City:

Astronomy

Sep. 16, 2019 Rise Set
Actual Time 7:15 AM MDT 7:43 PM MDT
Civil Twilight 6:47 AM MDT 8:11 PM MDT
Nautical Twilight 6:14 AM MDT 8:44 PM MDT
Astronomical Twilight 5:39 AM MDT 9:18 PM MDT
Moon 9:17 PM MDT (9/16) 9:28 AM MDT (9/16)
Length of Visible Light 13h 23m
Length of Day
12h 27m
Waning Gibbous, 94% of the Moon is Illuminated
Sep 16
Waning Gibbous
Sep 21
Last Quarter
Sep 28
New
Oct 5
First Quarter
Oct 13
Full

Hourly Weather History & Observations

Time (MDT) Temp. Dew Point Humidity Pressure Visibility Wind Dir Wind Speed Gust Speed Precip Events Conditions
12:53 AM 55.0 °F 41.0 °F 59% 29.67 in 10.0 mi SSE 3.5 mph - N/A   Clear
1:53 AM 55.9 °F 37.9 °F 51% 29.68 in 10.0 mi SW 6.9 mph - N/A   Clear
2:53 AM 57.9 °F 34.0 °F 41% 29.67 in 10.0 mi SW 9.2 mph - N/A   Clear
3:53 AM 54.0 °F 36.0 °F 51% 29.68 in 10.0 mi Calm Calm - N/A   Clear
4:53 AM 54.0 °F 36.0 °F 51% 29.69 in 10.0 mi Calm Calm - N/A   Clear
5:53 AM 51.1 °F 36.0 °F 56% 29.69 in 10.0 mi Calm Calm - N/A   Clear
6:53 AM 53.1 °F 33.1 °F 47% 29.71 in 10.0 mi South 6.9 mph - N/A   Clear
7:53 AM 55.9 °F 35.1 °F 45% 29.72 in 10.0 mi SW 4.6 mph - N/A   Clear
8:53 AM 60.1 °F 39.9 °F 47% 29.72 in 10.0 mi Calm Calm - N/A   Clear
9:53 AM 64.9 °F 42.1 °F 43% 29.72 in 10.0 mi Calm Calm - N/A   Clear
10:53 AM 71.1 °F 41.0 °F 34% 29.70 in 10.0 mi Calm Calm - N/A   Clear
11:53 AM 75.0 °F 28.9 °F 18% 29.69 in 10.0 mi WNW 5.8 mph - N/A   Clear
12:53 PM 77.0 °F 27.0 °F 16% 29.66 in 10.0 mi Variable 5.8 mph - N/A   Clear
1:53 PM 78.1 °F 28.0 °F 16% 29.63 in 10.0 mi NW 8.1 mph - N/A   Clear
2:53 PM 79.0 °F 28.0 °F 15% 29.60 in 10.0 mi Variable 4.6 mph - N/A   Clear
3:53 PM 81.0 °F 30.9 °F 16% 29.57 in 10.0 mi Calm Calm - N/A   Clear
4:53 PM 79.0 °F 35.1 °F 20% 29.55 in 10.0 mi WNW 9.2 mph - N/A   Scattered Clouds
5:53 PM 75.0 °F 36.0 °F 24% 29.55 in 10.0 mi WNW 5.8 mph - N/A   Partly Cloudy
6:53 PM 72.0 °F 39.0 °F 30% 29.55 in 10.0 mi WNW 3.5 mph - N/A   Clear
7:53 PM 62.1 °F 45.0 °F 53% 29.57 in 10.0 mi WSW 8.1 mph - N/A   Clear
8:43 PM 63.0 °F 37.9 °F 40% 29.70 in 10.0 mi West 19.6 mph 32.2 mph 0.00 in Rain Light Rain
8:53 PM 63.0 °F 37.9 °F 40% 29.62 in 9.0 mi West 27.6 mph 40.3 mph 0.00 in Rain Light Rain
9:06 PM 61.0 °F 37.9 °F 42% 29.74 in 6.0 mi West 26.5 mph 36.8 mph 0.00 in Rain Light Rain
9:27 PM 57.9 °F 37.9 °F 47% 29.75 in 5.0 mi West 33.4 mph 43.7 mph 0.00 in Rain Light Rain
9:53 PM 57.0 °F 37.9 °F 49% 29.68 in 10.0 mi West 26.5 mph 42.6 mph 0.00 in Rain Light Rain
10:53 PM 55.9 °F 37.0 °F 49% 29.77 in 10.0 mi WSW 17.3 mph 24.2 mph 0.00 in   Clear
11:53 PM 53.1 °F 39.9 °F 61% 29.79 in 10.0 mi West 24.2 mph 35.7 mph 0.00 in Rain Light Rain